Location: Unspecified
(47.4992°N, 121.7766°W)
Time: 15:06:50
(UTC-07:00)

ISS - Pass Details

Date: 29 April 2024
Orbit: 410 x 414 km, 51.6° (Epoch: 18 May)

Event Time Altitude Azimuth Distance (km) Brightness Sun altitude
Exits shadow 03:22:07 58° 102° (ESE) 484 -3.4 -20.6°
Drops below altitude 10° 03:24:59 10° 69° (ENE) 1,480 -0.2 -20.3°
Sets 03:27:05 0° 66° (ENE) 2,343 1.1 -20.1°
